SAS391 ENGM-ENDU

Flight info

Callsign SAS391
Flight time 1h 31m
Altitude 37000
Route RIBBE DCT GIGNI DCT SOMUB DCT GUBAV DCT PENNO DCT XAPAN
Aircraft A320/M-SDE3FGHIRWY/LB1

Departure

Time 2026-05-06 05:47
Airport Oslo-Gardermoen International Airport (ENGM)

Arrival

Time 2026-05-06 07:19
Airport Bardufoss Airport (ENDU)
Time Latitude Longitude Altitude Speed Heading
2026-05-06 05:17 60.19499 11.09197 679 ft 0 kts 16°
2026-05-06 05:39 60.19491 11.09192 683 ft 4 kts 16°
2026-05-06 05:39 60.19465 11.09177 679 ft 4 kts 16°
2026-05-06 05:39 60.19452 11.09169 681 ft 0 kts 16°
2026-05-06 05:41 60.19453 11.09170 681 ft 1 kts 16°
2026-05-06 05:42 60.19463 11.09166 682 ft 1 kts 326°
2026-05-06 05:42 60.19467 11.09134 683 ft 5 kts 283°
2026-05-06 05:42 60.19469 11.08985 685 ft 10 kts 278°
2026-05-06 05:42 60.19492 11.08828 683 ft 14 kts 289°
2026-05-06 05:43 60.19521 11.08635 677 ft 10 kts 284°
2026-05-06 05:43 60.19486 11.08506 677 ft 13 kts 203°
2026-05-06 05:43 60.19388 11.08452 676 ft 17 kts 195°
2026-05-06 05:43 60.19264 11.08378 674 ft 20 kts 196°
2026-05-06 05:44 60.19115 11.08294 673 ft 24 kts 195°
2026-05-06 05:44 60.18967 11.08207 673 ft 24 kts 196°
2026-05-06 05:44 60.18809 11.08116 672 ft 23 kts 196°
2026-05-06 05:44 60.18654 11.08027 671 ft 23 kts 196°
2026-05-06 05:45 60.18495 11.07934 669 ft 24 kts 197°
2026-05-06 05:45 60.18372 11.07865 667 ft 15 kts 200°
2026-05-06 05:45 60.18374 11.07667 664 ft 19 kts 312°
2026-05-06 05:45 60.18409 11.07613 664 ft 0 kts 324°
2026-05-06 05:46 60.18450 11.07555 664 ft 19 kts 324°
2026-05-06 05:46 60.18551 11.07425 666 ft 17 kts 346°
2026-05-06 05:46 60.18617 11.07441 666 ft 0 kts 13°
2026-05-06 05:46 60.18705 11.07489 667 ft 44 kts 15°
2026-05-06 05:47 60.19226 11.07791 672 ft 109 kts 16°
2026-05-06 05:47 60.20125 11.08309 677 ft 158 kts 16°
2026-05-06 05:47 60.21280 11.08943 994 ft 177 kts 15°
2026-05-06 05:47 60.22463 11.09613 1847 ft 176 kts 15°
2026-05-06 05:48 60.23680 11.10316 2377 ft 192 kts 15°
2026-05-06 05:48 60.25037 11.11096 2706 ft 212 kts 14°
2026-05-06 05:48 60.26567 11.11276 3067 ft 234 kts 351°
2026-05-06 05:48 60.28255 11.10783 3613 ft 254 kts 351°
2026-05-06 05:49 60.30002 11.10245 4466 ft 261 kts 349°
2026-05-06 05:49 60.31813 11.09667 5373 ft 265 kts 349°
2026-05-06 05:49 60.33659 11.09247 6311 ft 271 kts
2026-05-06 05:49 60.35543 11.09800 7204 ft 275 kts
2026-05-06 05:50 60.37439 11.10484 8105 ft 279 kts
2026-05-06 05:50 60.39364 11.11191 8981 ft 283 kts
2026-05-06 05:50 60.41316 11.11911 9856 ft 287 kts
2026-05-06 05:50 60.43321 11.12651 10361 ft 303 kts
2026-05-06 05:51 60.45472 11.13438 10675 ft 323 kts
2026-05-06 05:51 60.47709 11.14257 11327 ft 330 kts
2026-05-06 05:51 60.49949 11.15084 12064 ft 334 kts
2026-05-06 05:51 60.52248 11.15934 12807 ft 338 kts
2026-05-06 05:52 60.54571 11.16796 13513 ft 342 kts
2026-05-06 05:52 60.56921 11.17673 14187 ft 345 kts
2026-05-06 05:52 60.59293 11.18552 14866 ft 348 kts
2026-05-06 05:52 60.61691 11.19439 15517 ft 352 kts
2026-05-06 05:53 60.64109 11.20340 16161 ft 355 kts
2026-05-06 05:53 60.66551 11.21255 16797 ft 359 kts
2026-05-06 05:53 60.69023 11.22181 17446 ft 363 kts
2026-05-06 05:53 60.71483 11.23097 18080 ft 366 kts
2026-05-06 05:54 60.74005 11.24034 18655 ft 370 kts
2026-05-06 05:54 60.76553 11.24980 19200 ft 375 kts
2026-05-06 05:54 60.79134 11.25942 19759 ft 379 kts
2026-05-06 05:54 60.81744 11.26923 20316 ft 384 kts
2026-05-06 05:55 60.84381 11.27919 20859 ft 388 kts
2026-05-06 05:55 60.87051 11.28929 21452 ft 392 kts
2026-05-06 05:55 60.89750 11.29948 21973 ft 397 kts
2026-05-06 05:55 60.92482 11.30984 22485 ft 401 kts
2026-05-06 05:56 60.95243 11.32034 23021 ft 406 kts 359°
2026-05-06 05:56 60.97997 11.33079 23527 ft 410 kts 359°
2026-05-06 05:56 61.00817 11.34148 23962 ft 414 kts 359°
2026-05-06 05:56 61.03666 11.35231 24326 ft 418 kts 359°
2026-05-06 05:57 61.06541 11.36329 24757 ft 421 kts 359°
2026-05-06 05:57 61.09432 11.37438 25184 ft 425 kts 359°
2026-05-06 05:57 61.12352 11.38560 25612 ft 428 kts 359°
2026-05-06 05:57 61.15297 11.39691 26034 ft 432 kts 359°
2026-05-06 05:58 61.18264 11.40834 26433 ft 436 kts 359°
2026-05-06 05:58 61.21214 11.41977 26825 ft 439 kts 359°
2026-05-06 05:58 61.24231 11.43146 27205 ft 442 kts 359°
2026-05-06 05:58 61.27267 11.44323 27573 ft 446 kts 359°
2026-05-06 05:59 61.30328 11.45510 27938 ft 449 kts 359°
2026-05-06 05:59 61.33411 11.46706 28334 ft 452 kts 360°
2026-05-06 05:59 61.36513 11.47858 28724 ft 452 kts 356°
2026-05-06 05:59 61.39617 11.48325 29076 ft 443 kts 348°
2026-05-06 06:00 61.42709 11.48341 29435 ft 446 kts 348°
2026-05-06 06:00 61.45821 11.48342 29855 ft 449 kts 349°
2026-05-06 06:00 61.48954 11.48338 30189 ft 452 kts 349°
2026-05-06 06:00 61.52069 11.48333 30463 ft 455 kts 349°
2026-05-06 06:01 61.55245 11.48334 30778 ft 458 kts 350°
2026-05-06 06:01 61.58436 11.48342 31100 ft 460 kts 350°
2026-05-06 06:01 61.61646 11.48356 31439 ft 461 kts 351°
2026-05-06 06:01 61.64851 11.48374 31879 ft 460 kts 351°
2026-05-06 06:02 61.68053 11.48393 32307 ft 460 kts 351°
2026-05-06 06:02 61.71250 11.48413 32725 ft 459 kts 352°
2026-05-06 06:02 61.74449 11.48437 33145 ft 459 kts 352°
2026-05-06 06:02 61.77595 11.48458 33611 ft 459 kts 353°
2026-05-06 06:03 61.80785 11.48474 34039 ft 458 kts 353°
2026-05-06 06:03 61.83970 11.48487 34413 ft 457 kts 354°
2026-05-06 06:03 61.87147 11.48501 34771 ft 456 kts 354°
2026-05-06 06:03 61.90320 11.48507 35101 ft 456 kts 354°
2026-05-06 06:04 61.93491 11.48511 35421 ft 456 kts 354°
2026-05-06 06:04 61.96663 11.48518 35712 ft 456 kts 354°
2026-05-06 06:04 61.99835 11.48567 35992 ft 458 kts 357°
2026-05-06 06:04 62.02980 11.49181 36259 ft 460 kts
2026-05-06 06:05 62.06167 11.49907 36574 ft 461 kts
2026-05-06 06:05 62.09354 11.50638 36835 ft 461 kts
2026-05-06 06:05 62.12546 11.51369 36956 ft 462 kts
2026-05-06 06:05 62.15742 11.52102 36980 ft 462 kts
2026-05-06 06:06 62.22121 11.53571 36977 ft 461 kts
2026-05-06 06:06 62.28502 11.55039 36979 ft 461 kts
2026-05-06 06:07 62.34836 11.56506 37006 ft 461 kts
2026-05-06 06:07 62.41208 11.57992 36972 ft 461 kts
2026-05-06 06:08 62.47582 11.59481 36985 ft 461 kts
2026-05-06 06:08 62.53963 11.60971 36990 ft 461 kts
2026-05-06 06:09 62.60343 11.62459 36909 ft 461 kts
2026-05-06 06:09 62.66685 11.63961 36947 ft 461 kts
2026-05-06 06:10 62.73067 11.65476 36959 ft 461 kts
2026-05-06 06:10 62.79452 11.66993 36967 ft 461 kts
2026-05-06 06:11 62.85832 11.68519 36980 ft 461 kts
2026-05-06 06:11 62.92169 11.70047 36991 ft 461 kts
2026-05-06 06:12 62.98547 11.71588 36997 ft 461 kts
2026-05-06 06:12 63.04920 11.73136 36989 ft 461 kts
2026-05-06 06:13 63.11285 11.74688 36985 ft 461 kts
2026-05-06 06:13 63.17618 11.76226 36980 ft 461 kts
2026-05-06 06:14 63.23989 11.77784 36976 ft 461 kts
2026-05-06 06:14 63.30359 11.79357 36991 ft 461 kts
2026-05-06 06:15 63.36677 11.81915 36986 ft 466 kts 15°
2026-05-06 06:15 63.42743 11.86799 36977 ft 467 kts 17°
2026-05-06 06:16 63.48850 11.91738 36970 ft 467 kts 17°
2026-05-06 06:16 63.54961 11.96690 36974 ft 467 kts 17°
2026-05-06 06:17 63.61068 12.01672 36978 ft 466 kts 17°
2026-05-06 06:17 63.67120 12.06648 36973 ft 466 kts 17°
2026-05-06 06:18 63.73206 12.11661 36965 ft 466 kts 17°
2026-05-06 06:18 63.79292 12.16701 36961 ft 466 kts 17°
2026-05-06 06:19 63.85369 12.21759 36973 ft 465 kts 17°
2026-05-06 06:19 63.91405 12.26803 36967 ft 465 kts 17°
2026-05-06 06:20 63.97474 12.31903 36955 ft 465 kts 17°
2026-05-06 06:20 64.03537 12.37021 36991 ft 465 kts 17°
2026-05-06 06:21 64.09598 12.42153 36984 ft 465 kts 17°
2026-05-06 06:21 64.15660 12.47287 36977 ft 464 kts 17°
2026-05-06 06:22 64.21676 12.52427 36966 ft 464 kts 18°
2026-05-06 06:22 64.27725 12.57651 36953 ft 465 kts 18°
2026-05-06 06:23 64.33779 12.62876 36939 ft 464 kts 18°
2026-05-06 06:23 64.39830 12.68110 36936 ft 464 kts 18°
2026-05-06 06:24 64.45837 12.73338 36945 ft 464 kts 18°
2026-05-06 06:24 64.51882 12.78632 36935 ft 464 kts 18°
2026-05-06 06:25 64.57916 12.83945 36919 ft 464 kts 18°
2026-05-06 06:26 64.66962 12.91935 36921 ft 463 kts 18°
2026-05-06 06:26 64.72947 12.97253 36902 ft 463 kts 18°
2026-05-06 06:27 64.78966 13.02644 36916 ft 463 kts 18°
2026-05-06 06:27 64.85011 13.08082 36877 ft 470 kts 18°
2026-05-06 06:28 64.91187 13.13657 36865 ft 480 kts 19°
2026-05-06 06:28 64.97470 13.19358 36866 ft 487 kts 19°
2026-05-06 06:29 65.03759 13.25102 36866 ft 488 kts 19°
2026-05-06 06:29 65.10097 13.30912 36860 ft 488 kts 19°
2026-05-06 06:30 65.16432 13.36754 36854 ft 488 kts 19°
2026-05-06 06:30 65.22763 13.42629 36861 ft 489 kts 19°
2026-05-06 06:31 65.29048 13.48470 36839 ft 483 kts 19°
2026-05-06 06:31 65.35254 13.54283 36843 ft 477 kts 19°
2026-05-06 06:32 65.41415 13.60072 36834 ft 475 kts 19°
2026-05-06 06:32 65.47566 13.65882 36835 ft 475 kts 19°
2026-05-06 06:33 65.53671 13.71697 36830 ft 475 kts 19°
2026-05-06 06:33 65.59817 13.77575 36834 ft 475 kts 19°
2026-05-06 06:34 65.65967 13.83465 36852 ft 475 kts 20°
2026-05-06 06:34 65.72114 13.89388 36847 ft 475 kts 20°
2026-05-06 06:35 65.78218 13.95305 36843 ft 475 kts 19°
2026-05-06 06:35 65.84392 14.01052 36841 ft 475 kts 18°
2026-05-06 06:36 65.90591 14.06621 36837 ft 475 kts 18°
2026-05-06 06:36 65.96784 14.12227 36851 ft 474 kts 19°
2026-05-06 06:37 66.01921 14.16967 36843 ft 474 kts 19°
2026-05-06 06:37 66.09089 14.23654 36840 ft 474 kts 19°
2026-05-06 06:38 66.15257 14.29425 36837 ft 474 kts 19°
2026-05-06 06:38 66.20378 14.34234 36833 ft 474 kts 19°
2026-05-06 06:39 66.27538 14.40993 36836 ft 474 kts 19°
2026-05-06 06:39 66.33696 14.46837 36833 ft 474 kts 19°
2026-05-06 06:40 66.38809 14.51718 36832 ft 473 kts 19°
2026-05-06 06:40 66.44958 14.57603 36835 ft 473 kts 19°
2026-05-06 06:41 66.51108 14.63528 36836 ft 473 kts 19°
2026-05-06 06:41 66.57250 14.69466 36858 ft 473 kts 19°
2026-05-06 06:42 66.63350 14.75404 36852 ft 473 kts 19°
2026-05-06 06:42 66.69480 14.81402 36850 ft 473 kts 19°
2026-05-06 06:43 66.75610 14.87423 36838 ft 472 kts 19°
2026-05-06 06:43 66.81733 14.93480 36846 ft 473 kts 20°
2026-05-06 06:44 66.87855 14.99578 36840 ft 472 kts 20°
2026-05-06 06:44 66.93934 15.05651 36834 ft 472 kts 20°
2026-05-06 06:45 67.00046 15.11806 36835 ft 472 kts 20°
2026-05-06 06:45 67.06155 15.17998 36836 ft 472 kts 20°
2026-05-06 06:46 67.12262 15.24214 36838 ft 472 kts 20°
2026-05-06 06:46 67.18368 15.30442 36833 ft 472 kts 20°
2026-05-06 06:47 67.24431 15.36664 36836 ft 472 kts 20°
2026-05-06 06:47 67.30533 15.42960 36842 ft 472 kts 20°
2026-05-06 06:48 67.36627 15.49303 36836 ft 472 kts 20°
2026-05-06 06:48 67.42722 15.55666 36836 ft 472 kts 20°
2026-05-06 06:49 67.48755 15.62005 36809 ft 463 kts 20°
2026-05-06 06:49 67.54650 15.68223 36819 ft 455 kts 20°
2026-05-06 06:50 67.60504 15.74440 36813 ft 454 kts 21°
2026-05-06 06:50 67.66352 15.80690 36814 ft 454 kts 21°
2026-05-06 06:51 67.72158 15.86906 36815 ft 454 kts 21°
2026-05-06 06:51 67.78001 15.93207 36831 ft 454 kts 21°
2026-05-06 06:52 67.83846 15.99566 36824 ft 454 kts 21°
2026-05-06 06:52 67.89695 16.05951 36823 ft 455 kts 21°
2026-05-06 06:53 67.95391 16.13034 36819 ft 457 kts 30°
2026-05-06 06:53 68.00834 16.21780 36820 ft 457 kts 30°
2026-05-06 06:53 68.03558 16.26188 36255 ft 461 kts 30°
2026-05-06 06:54 68.06323 16.30677 35068 ft 466 kts 30°
2026-05-06 06:54 68.09086 16.35179 33948 ft 465 kts 30°
2026-05-06 06:54 68.11844 16.39686 32651 ft 463 kts 30°
2026-05-06 06:54 68.14585 16.44176 31393 ft 460 kts 30°
2026-05-06 06:55 68.17259 16.48569 30457 ft 451 kts 30°
2026-05-06 06:55 68.19874 16.52868 30075 ft 430 kts 30°
2026-05-06 06:55 68.22373 16.56986 29555 ft 413 kts 30°
2026-05-06 06:55 68.24765 16.60942 29160 ft 395 kts 30°
2026-05-06 06:56 68.27058 16.64746 28766 ft 380 kts 30°
2026-05-06 06:56 68.29268 16.68414 28397 ft 366 kts 30°
2026-05-06 06:56 68.31395 16.71952 28041 ft 352 kts 30°
2026-05-06 06:56 68.33438 16.75359 27695 ft 340 kts 30°
2026-05-06 06:57 68.35438 16.78698 27353 ft 335 kts 31°
2026-05-06 06:57 68.37411 16.81995 27005 ft 331 kts 31°
2026-05-06 06:57 68.39334 16.85214 26674 ft 328 kts 31°
2026-05-06 06:57 68.41265 16.88457 26325 ft 325 kts 31°
2026-05-06 06:58 68.43177 16.91674 25972 ft 321 kts 31°
2026-05-06 06:58 68.45065 16.94864 25638 ft 318 kts 31°
2026-05-06 06:58 68.46934 16.98035 25280 ft 315 kts 31°
2026-05-06 06:58 68.48783 17.01178 24931 ft 311 kts 31°
2026-05-06 06:59 68.50610 17.04282 24585 ft 308 kts 31°
2026-05-06 06:59 68.52420 17.07364 24227 ft 305 kts 31°
2026-05-06 06:59 68.54208 17.10413 23870 ft 301 kts 31°
2026-05-06 06:59 68.55978 17.13431 23521 ft 298 kts 31°
2026-05-06 07:00 68.57704 17.16374 23143 ft 295 kts 31°
2026-05-06 07:00 68.59437 17.19341 22787 ft 292 kts 31°
2026-05-06 07:00 68.61151 17.22291 22443 ft 290 kts 31°
2026-05-06 07:00 68.62856 17.25232 22095 ft 288 kts 31°
2026-05-06 07:01 68.64549 17.28152 21762 ft 287 kts 30°
2026-05-06 07:01 68.66181 17.31236 21425 ft 284 kts 38°
2026-05-06 07:01 68.67616 17.34960 21090 ft 284 kts 47°
2026-05-06 07:01 68.68837 17.39223 20773 ft 284 kts 52°
2026-05-06 07:02 68.70014 17.43563 20446 ft 283 kts 51°
2026-05-06 07:02 68.71177 17.47819 20130 ft 282 kts 51°
2026-05-06 07:02 68.72353 17.52116 19795 ft 280 kts 51°
2026-05-06 07:02 68.73521 17.56402 19475 ft 279 kts 51°
2026-05-06 07:03 68.74684 17.60684 19138 ft 278 kts 51°
2026-05-06 07:03 68.75839 17.64960 18823 ft 278 kts 51°
2026-05-06 07:03 68.76986 17.69231 18507 ft 277 kts 51°
2026-05-06 07:03 68.78130 17.73495 18193 ft 276 kts 51°
2026-05-06 07:04 68.79271 17.77745 17863 ft 275 kts 51°
2026-05-06 07:04 68.80408 17.81974 17540 ft 273 kts 51°
2026-05-06 07:04 68.81522 17.86120 17227 ft 272 kts 51°
2026-05-06 07:04 68.82642 17.90312 16917 ft 270 kts 51°
2026-05-06 07:05 68.83750 17.94472 16609 ft 268 kts 51°
2026-05-06 07:05 68.84852 17.98614 16307 ft 266 kts 51°
2026-05-06 07:05 68.85947 18.02729 15999 ft 265 kts 51°
2026-05-06 07:05 68.87034 18.06827 15695 ft 263 kts 52°
2026-05-06 07:06 68.88109 18.10899 15390 ft 261 kts 52°
2026-05-06 07:06 68.89176 18.14944 15090 ft 259 kts 52°
2026-05-06 07:06 68.90236 18.18964 14801 ft 258 kts 51°
2026-05-06 07:06 68.91259 18.22976 14505 ft 258 kts 57°
2026-05-06 07:07 68.92031 18.27469 14206 ft 259 kts 70°
2026-05-06 07:07 68.92463 18.32310 13896 ft 258 kts 82°
2026-05-06 07:07 68.92549 18.37269 13568 ft 257 kts 94°
2026-05-06 07:07 68.92317 18.42171 13209 ft 255 kts 100°
2026-05-06 07:08 68.92031 18.47020 12821 ft 253 kts 99°
2026-05-06 07:08 68.91752 18.51827 12393 ft 251 kts 99°
2026-05-06 07:08 68.91476 18.56588 11930 ft 249 kts 99°
2026-05-06 07:08 68.91201 18.61305 11471 ft 246 kts 99°
2026-05-06 07:09 68.90930 18.65907 11020 ft 244 kts 99°
2026-05-06 07:09 68.90656 18.70531 10569 ft 242 kts 99°
2026-05-06 07:09 68.90385 18.75105 10140 ft 239 kts 99°
2026-05-06 07:09 68.90116 18.79618 9798 ft 232 kts 99°
2026-05-06 07:10 68.89851 18.84043 9769 ft 235 kts 99°
2026-05-06 07:10 68.89578 18.88541 9775 ft 237 kts 99°
2026-05-06 07:10 68.89302 18.93050 9770 ft 237 kts 99°
2026-05-06 07:10 68.89024 18.97558 9764 ft 237 kts 99°
2026-05-06 07:11 68.88745 19.02033 9551 ft 244 kts 99°
2026-05-06 07:11 68.88450 19.06791 8986 ft 254 kts 99°
2026-05-06 07:11 68.88149 19.11643 8623 ft 256 kts 99°
2026-05-06 07:11 68.87851 19.16525 8273 ft 257 kts 97°
2026-05-06 07:12 68.87921 19.21437 7923 ft 256 kts 75°
2026-05-06 07:12 68.88617 19.25861 7791 ft 247 kts 54°
2026-05-06 07:12 68.89779 19.29259 7481 ft 243 kts 33°
2026-05-06 07:12 68.91288 19.31326 7110 ft 243 kts 13°
2026-05-06 07:13 68.92956 19.31819 6824 ft 240 kts 355°
2026-05-06 07:13 68.94561 19.31586 6751 ft 229 kts 355°
2026-05-06 07:13 68.96056 19.30580 6635 ft 216 kts 329°
2026-05-06 07:13 68.97135 19.27810 6402 ft 213 kts 300°
2026-05-06 07:14 68.97672 19.23982 6097 ft 213 kts 288°
2026-05-06 07:14 68.98118 19.20050 5782 ft 213 kts 288°
2026-05-06 07:14 68.98563 19.16114 5487 ft 212 kts 288°
2026-05-06 07:14 68.99007 19.12197 5176 ft 212 kts 288°
2026-05-06 07:15 68.99453 19.08277 4839 ft 214 kts 288°
2026-05-06 07:15 68.99898 19.04365 4489 ft 216 kts 288°
2026-05-06 07:15 69.00353 19.00364 4119 ft 217 kts 287°
2026-05-06 07:15 69.00801 18.96416 3756 ft 210 kts 287°
2026-05-06 07:16 69.01232 18.92613 3426 ft 202 kts 287°
2026-05-06 07:16 69.01648 18.88945 3122 ft 195 kts 287°
2026-05-06 07:16 69.02046 18.85424 2994 ft 186 kts 287°
2026-05-06 07:16 69.02426 18.82032 2980 ft 181 kts 287°
2026-05-06 07:17 69.02790 18.78794 2863 ft 174 kts 287°
2026-05-06 07:17 69.03161 18.75457 2264 ft 187 kts 287°
2026-05-06 07:17 69.03554 18.71916 1651 ft 198 kts 287°
2026-05-06 07:17 69.03934 18.68497 1212 ft 174 kts 287°
2026-05-06 07:18 69.04276 18.65357 660 ft 164 kts 285°
2026-05-06 07:18 69.04512 18.62408 482 ft 150 kts 283°
2026-05-06 07:18 69.04838 18.59696 393 ft 146 kts 292°
2026-05-06 07:18 69.05196 18.57054 282 ft 145 kts 288°
2026-05-06 07:19 69.05509 18.54553 252 ft 100 kts 289°
2026-05-06 07:19 69.05647 18.53432 258 ft 45 kts 289°
2026-05-06 07:19 69.05724 18.53038 260 ft 17 kts 344°
2026-05-06 07:19 69.05848 18.53150 257 ft 19 kts 28°
2026-05-06 07:20 69.05860 18.53489 257 ft 19 kts 114°
2026-05-06 07:20 69.05865 18.53682 257 ft 10 kts 51°
2026-05-06 07:20 69.05865 18.53836 257 ft 7 kts 104°
2026-05-06 07:20 69.05875 18.53851 257 ft 1 kts 357°
2026-05-06 07:21 69.05900 18.53826 257 ft 7 kts 344°
2026-05-06 07:21 69.05905 18.53822 257 ft 0 kts 342°